Weather History for KBOK - October, 2012

Change the Weather History Date:

Saturday, October 20, 2012

  Actual Average Record
Temperature  
Mean Temperature 48 °F -  
Max Temperature 56 °F 61 °F 81 °F (2006)
Min Temperature 41 °F 47 °F 39 °F (1949)
Degree Days  
Heating Degree Days 16    
Moisture  
Dew Point 44 °F    
Average Humidity 79    
Maximum Humidity 100    
Minimum Humidity 55    
Precipitation  
Precipitation 0.01 in - - ()
Sea Level Pressure  
Sea Level Pressure 30.02 in    
Wind  
Wind Speed 2 mph (NNW)    
Max Wind Speed 10 mph    
Max Gust Speed -    
Visibility 6 miles    
Events Fog , Rain    
Averages and records for this station are not official NWS values.
T = Trace of Precipitation, MM = Missing Value Source: NWS Daily Summary

Daily Weather History Graph

Daily Weather History Graph

Search for Another Location

Airport or City:

Trip Planner

Search our weather history database for the weather conditions in past years. The results will help you decide how hot, cold, wet, or windy it might be!

Date:

Astronomy

Oct. 20, 2012 Rise Set
Actual Time 7:36 AM PDT 6:26 PM PDT
Civil Twilight 7:07 AM PDT 6:55 PM PDT
Nautical Twilight 6:35 AM PDT 7:27 PM PDT
Astronomical Twilight 6:02 AM PDT 8:00 PM PDT
Moon 1:19 PM PDT (10/20) 11:16 PM PDT (10/20)
Length of Visible Light 11h 47m
Length of Day
10h 50m
Waxing Crescent, 35% of the Moon is Illuminated
Oct 20
Waxing Crescent
Oct 21
First Quarter
Oct 29
Full
Nov 6
Last Quarter
Nov 13
New

Hourly Weather History & Observations

Time (PDT) Temp. Windchill Dew Point Humidity Pressure Visibility Wind Dir Wind Speed Gust Speed Precip Events Conditions
12:26 AM 53.6 °F - - N/A% 30.01 in 10.0 mi Calm Calm - 0.00 in Rain Light Rain
12:56 AM 54.0 °F - - N/A% 30.02 in 8.0 mi Calm Calm - 0.00 in Rain Light Rain
1:20 AM 53.6 °F - - N/A% 30.02 in 2.5 mi Calm Calm - 0.01 in Rain Light Rain
1:27 AM 53.6 °F - - N/A% 30.02 in 7.0 mi Calm Calm - 0.01 in Rain Light Rain
1:33 AM 53.6 °F - - N/A% 30.02 in 2.0 mi Calm Calm - 0.01 in   Overcast
1:36 AM 53.6 °F - - N/A% 30.02 in 1.2 mi Calm Calm - 0.01 in   Overcast
1:38 AM 53.6 °F - - N/A% 30.02 in 0.8 mi Calm Calm - 0.01 in   Overcast
1:46 AM 53.6 °F - - N/A% 30.02 in 0.2 mi Calm Calm - 0.01 in Fog Fog
1:56 AM 54.0 °F - - N/A% 30.03 in 0.2 mi Calm Calm - 0.01 in Fog Fog
2:29 AM 53.6 °F - - N/A% 30.03 in 0.8 mi Calm Calm - 0.00 in   Overcast
2:40 AM 53.6 °F - - N/A% 30.02 in 0.5 mi Calm Calm - 0.00 in Fog Fog
2:56 AM 54.0 °F - - N/A% 30.03 in 1.0 mi NNW 3.5 mph - 0.00 in   Overcast
3:00 AM 53.6 °F - - N/A% 30.02 in 2.5 mi Variable 3.5 mph - N/A   Overcast
3:07 AM 53.6 °F - - N/A% 30.02 in 7.0 mi NW 3.5 mph - N/A   Overcast
3:20 AM 53.6 °F - - N/A% 30.02 in 1.5 mi NNW 3.5 mph - N/A   Overcast
3:23 AM 53.6 °F - - N/A% 30.02 in 1.0 mi NNW 4.6 mph - N/A   Overcast
3:27 AM 53.6 °F - - N/A% 30.02 in 0.5 mi Variable 3.5 mph - N/A Fog Fog
3:47 AM 53.6 °F - - N/A% 30.01 in 1.0 mi NNW 6.9 mph - 0.00 in   Overcast
3:49 AM 53.6 °F - - N/A% 30.01 in 1.5 mi North 5.8 mph - 0.00 in   Overcast
3:56 AM 52.9 °F - - N/A% 30.01 in 4.0 mi NW 4.6 mph - 0.00 in   Haze
4:20 AM 53.6 °F - - N/A% 30.01 in 10.0 mi NNW 8.1 mph - N/A   Overcast
4:31 AM 53.6 °F - - N/A% 30.01 in 10.0 mi North 8.1 mph - N/A   Overcast
4:56 AM 52.0 °F - 52.0 °F 100% 30.02 in 10.0 mi North 9.2 mph - 0.00 in   Mostly Cloudy
5:56 AM 52.0 °F - 48.9 °F 89% 30.01 in 10.0 mi NNE 5.8 mph - N/A   Partly Cloudy
6:56 AM 48.9 °F - 47.8 °F 96% 30.02 in 10.0 mi Calm Calm - N/A   Scattered Clouds
7:56 AM 46.9 °F - - N/A% 30.03 in 10.0 mi Calm Calm - N/A   Clear
9:56 AM 52.9 °F - 48.9 °F 86% 30.06 in 10.0 mi North 4.6 mph - N/A   Clear
10:56 AM 54.9 °F - 45.0 °F 69% 30.06 in 10.0 mi NNW 6.9 mph - N/A   Clear
11:56 AM 54.9 °F - 41.9 °F 62% 30.05 in 10.0 mi Variable 4.6 mph - N/A   Clear
12:56 PM 55.9 °F - 41.9 °F 59% 30.05 in 10.0 mi Variable 6.9 mph - N/A   Partly Cloudy
1:56 PM 56.8 °F - 41.0 °F 55% 30.04 in 10.0 mi NW 10.4 mph - N/A   Partly Cloudy
3:56 PM 54.9 °F - 41.9 °F 62% 30.01 in 10.0 mi NW 10.4 mph - N/A   Partly Cloudy
4:56 PM 54.9 °F - 41.9 °F 62% 30.01 in 10.0 mi NNW 9.2 mph - N/A   Clear
5:56 PM 52.9 °F - 43.0 °F 69% 30.00 in 10.0 mi NW 5.8 mph - N/A   Clear
6:56 PM 50.0 °F - 43.0 °F 77% 30.00 in 10.0 mi Calm Calm - N/A   Clear
7:56 PM 48.9 °F - 38.8 °F 68% 30.00 in 10.0 mi North 3.5 mph - N/A   Clear
8:56 PM 45.0 °F - 43.9 °F 96% 30.00 in 10.0 mi Calm Calm - N/A   Clear
9:56 PM 41.9 °F 39.0 °F 41.9 °F 100% 30.01 in 10.0 mi East 4.6 mph - N/A   Clear
10:56 PM 43.0 °F 41.3 °F 43.0 °F 100% 30.01 in 10.0 mi NE 3.5 mph - N/A   Clear
11:56 PM 41.0 °F - 41.0 °F 100% 30.01 in 10.0 mi Calm Calm - N/A   Clear